Regional Weather Roundup
Issued by NWS

Home | Current Version | Previous Version | Graphics & Text | Print | Product List | Glossary On
Versions: 1 2 3 4 5 6 7 8 9 10 11 12 13 14 15 16 17 18 19 20 21 22 23 24 25 26 27 28 29 30 31 32 33 34 35 36 37 38 39 40 41 42 43 44 45 46 47 48 49 50
000
ASUS43 KLOT 221707
RWRIL

ILLINOIS REGIONAL WEATHER ROUNDUP
NATIONAL WEATHER SERVICE CHICAGO/ROMEOVILLE IL
1200 PM CDT WED MAR 22 2017

NOTE: "FAIR" INDICATES FEW OR NO CLOUDS BELOW 12,000 FEET WITH NO
SIGNIFICANT WEATHER AND/OR OBSTRUCTIONS TO VISIBILITY.

* THESE STATIONS ARE NOT UNDER NWS QUALITY CONTROL. THEY ALSO MAY NOT
  REPORT WEATHER SUCH AS PRECIPITATION OR FOG.

ILZ001-002-007-009-015-016-024-221800-
NORTHWEST ILLINOIS

CITY           SKY/WX    TMP DP  RH WIND       PRES   REMARKS
MOLINE         SUNNY     37  17  44 E12       30.56S WCI  29
STERLING*      SUNNY     36  17  46 E10G22    30.57F WCI  28
SAVANNA*       SUNNY     36  13  38 E10G16    30.58F WCI  29
$$

ILZ003-004-008-010-011-017-018-221800-
NORTH CENTRAL ILLINOIS

CITY           SKY/WX    TMP DP  RH WIND       PRES   REMARKS
ROCKFORD       MOSUNNY   35  14  42 E10       30.59F WCI  27
FREEPORT*      SUNNY     33  13  43 SE8       30.59F WCI  26
ROCHELLE*      SUNNY     35  17  49 NE8       30.57F WCI  28
DE KALB*       SUNNY     35  18  49 E13       30.57S WCI  27
PERU*          MOSUNNY   35  20  55 E10       30.58S WCI  27
$$

ILZ005-006-012>014-019>023-221800-
NORTHEAST ILLINOIS

CITY           SKY/WX    TMP DP  RH WIND       PRES   REMARKS
CHICAGO-OHARE  PTSUNNY   35  18  49 E14       30.58S WCI  26
CHICAGO-MIDWAY MOSUNNY   32  17  54 NE16G23   30.59S WCI  21
AURORA         SUNNY     37  19  48 E8G17     30.57F WCI  31
LANSING*       SUNNY     31  20  63 E9G16     30.59S WCI  23
JOLIET*        MOSUNNY   36  21  54 E8        30.59S WCI  29
WAUKEGAN       CLOUDY    30  18  60 E9        30.58F WCI  22
DUPAGE AIRPORT MOSUNNY   35  20  54 E12G21    30.56F WCI  27
KANKAKEE*      SUNNY     33  14  45 E9G18     30.59S WCI  26
WHEELING       PTSUNNY   31  16  54 NE9       30.60S WCI  23
MORRIS*        PTSUNNY   35  19  52 NE3       30.58R
ROMEOVILLE*    MOSUNNY   33  22  63 E8        30.57F WCI  27
NORTHERLY ISL    N/A     30  17  58 NE9         N/A  WCI  22
$$

LMZ740>746-221800-
SOUTHERN LAKE MICHIGAN

STATION/POSITION SKY/WX   TEMP    WIND        PRES    VSBY  WAVE
                          AIR SEA DIR/SP/G                  HT/PER
                          (F)     (DEG/KT/KT) (MB)    (MI)  (FT/S)
HARRISON CRIB              28      40/ 12/ 13   N/A
BURNHAM HARBOR             30      50/  7/ 15   N/A
CALUMET HARBOR             29      40/ 11/ 14 1035.4R
BURNS HARBOR               27      50/ 12/ 16 1036.2S
MICHIGAN CITY              25      20/ 13/ 14   N/A
$$

ILZ025>027-034>036-040-047-049-050-058-095>099-221800-
WEST-CENTRAL ILLINOIS

CITY           SKY/WX    TMP DP  RH WIND       PRES   REMARKS
QUINCY         SUNNY     41  23  48 E15       30.49F
GALESBURG*     SUNNY     37  21  52 E12G17    30.54S WCI  30
MACOMB*        SUNNY     39  19  43 E14       30.55S WCI  31
JACKSONVILLE*  SUNNY     40  17  38 E13G23    30.51F
PITTSFIELD*    SUNNY     41  22  46 E14       30.50F
$$

ILZ028>032-037-038-041>044-048-051>054-059>061-221800-
CENTRAL ILLINOIS

CITY           SKY/WX    TMP DP  RH WIND       PRES   REMARKS
PONTIAC        MOSUNNY   34  22  62 E10       30.59S WCI  26
BLOOMINGTON    SUNNY     36  15  42 E16G24    30.54F WCI  26
DECATUR        SUNNY     39  12  33 MISG      30.52F
PEORIA         SUNNY     37  20  50 E12       30.55F WCI  29
LACON*         MOSUNNY   35  22  59 E13       30.56F WCI  26
LINCOLN*       SUNNY     39  17  41 E12G21    30.54F WCI  31
SPRINGFIELD    SUNNY     42  14  32 E17G25    30.52F
TAYLORVILLE    SUNNY     39  13  34 E13G22    30.51F WCI  32
$$

ILZ033-039-045-046-055>057-062-063-221800-
EAST-CENTRAL ILLINOIS

CITY           SKY/WX    TMP DP  RH WIND       PRES   REMARKS
CHAMPAIGN      SUNNY     37  16  42 NE17      30.53F WCI  27
RANTOUL*       SUNNY     36  20  52 NE14      30.55F WCI  27
MATTOON        SUNNY     39  16  39 NE17      30.50F WCI  30
PARIS*         SUNNY     37  19  47 E15G23    30.54F WCI  28
$$

ILZ079-100>102-221800-
SOUTHWEST ILLINOIS

CITY           SKY/WX    TMP DP  RH WIND       PRES   REMARKS
ALTON          SUNNY     41  19  42 NE14      30.49F
BELLEVILLE     SUNNY     45  25  46 E14G20    30.46F
CAHOKIA*       SUNNY     46  23  40 NE10G16   30.47F
SPARTA*        SUNNY     44  26  50 NE10G16   30.45F
$$

ILZ064>066-069>071-074>076-080>082-084>086-088>090-092>094-221800-
SOUTH-CENTRAL ILLINOIS

CITY           SKY/WX    TMP DP  RH WIND       PRES   REMARKS
CARBONDALE     SUNNY     47  26  44 NE13      30.44F
CAIRO*         MOSUNNY   48  29  46 NE17      30.40F
EFFINGHAM*     SUNNY     42  22  45 NE8       30.51F
MARION         MOSUNNY   50  25  37 N14G32    30.44F
MT. VERNON     SUNNY     45  25  45 E15       30.46F
CENTRALIA*     SUNNY     44  28  55 NE14      30.46F
SALEM*         SUNNY     43  23  45 E8G18     30.47F
METROPOLIS*    SUNNY     50  24  36 NE9G16    30.41F
$$

ILZ067-068-072-073-078-083-087-091-221800-
SOUTHEAST ILLINOIS

CITY           SKY/WX    TMP DP  RH WIND       PRES   REMARKS
LAWRENCEVILLE  LGT RAIN  43  19  38 NE13      30.50F
FLORA*         SUNNY     43  22  43 E8G21     30.49F
FAIRFIELD*       N/A    N/A N/A N/A MISG        N/A
HARRISBURG*    SUNNY     46  24  42 NE14      30.45F
ROBINSON*      SUNNY     41  18  40 E12G21    30.52F
CARMI*         SUNNY     45  25  45 NE13G23   30.46F
$$

ABBREVIATIONS USED IN REMARKS
   TC - TEMPERATURE IN CELSIUS
  WCI - WIND CHILL INDEX
   HX - HEAT INDEX
  VSB - VISIBILITY
$$





USA.gov is the U.S. government's official web portal to all federal, state and local government web resources and services.